Skip Page Navigation
NASA JPL Caltech
NASA Logo - Jet Propulsion Laboratory + View the NASA Portal
+ Center for Near-Earth Object Studies
JPL Home Earth Solar System Stars & Galaxies Technology
JPL Solar System Dynamics
BODIES ORBITS EPHEMERIDES TOOLS PHYSICAL DATA DISCOVERY FAQ SITE MAP
IMPORTANT: The SSD Announcement email list is now available. Major changes are coming in the near future, including possible hostname and/or URL changes. To be notified of such changes, subscribe to this email list.

Please visit this page for more details.


JPL Small-Body Database Browser
Search: [ help ]  
183346 (2002 VH104)
Classification: Main-belt Asteroid          SPK-ID: 2183346
Ephemeris | Orbit Diagram | Orbital Elements | Mission Design | Physical Parameters | Discovery Circumstances | Close-Approach Data ]

[ show orbit diagram ]
Orbital Elements at Epoch 2458600.5 (2019-Apr-27.0) TDB
Reference: JPL 9 (heliocentric ecliptic J2000)
 Element Value Uncertainty (1-sigma)   Units 
e .2156877813696952 6.0329e-08  
a 2.35113902765615 1.319e-08 au
q 1.844027067089293 1.468e-07 au
i 2.704733236624862 5.885e-06 deg
node 17.13234016892288 0.00010351 deg
peri 314.9174161241389 0.00010428 deg
M 260.5028055184398 1.1527e-05 deg
tp 2458964.435337715515
(2020-Apr-24.93533772)
4.321e-05 TDB
period 1316.788099003803
3.61
1.1081e-05
3.034e-08
d
yr
n .2733925073232002 2.3007e-09 deg/d
Q 2.858250988223007 1.6035e-08 au
  Orbit Determination Parameters
   # obs. used (total)      229  
   data-arc span      10102 days (27.66 yr)  
   first obs. used      1991-09-12  
   last obs. used      2019-05-10  
   planetary ephem.      DE431  
   SB-pert. ephem.      SB431-N16  
   condition code      0  
   norm. resid. RMS      .65015  
   source      ORB  
   producer      Otto Matic  
   solution date      2019-May-30 07:50:53  

Additional Information
 Earth MOID = .833964 au 
 Jupiter MOID = 2.50634 au 
 T_jup = 3.524 
[ show covariance matrix ]

Ephemeris | Orbit Diagram | Orbital Elements | Mission Design | Physical Parameters | Discovery Circumstances | Close-Approach Data ]

Physical Parameter Table
Parameter Symbol Value Units Sigma Reference Notes
absolute magnitude H 17.0   n/a MPO433199  

183346 (2002 VH104)          Discovered 2002-Nov-12 by LINEAR at Socorro
Reference: 20080420/Numbers.arcLast Updated: 2008-04-23

[ show close-approach data ]
Ephemeris | Orbit Diagram | Orbital Elements | Mission Design | Physical Parameters | Discovery Circumstances | Close-Approach Data ]
ABOUT SSD CREDITS/AWARDS PRIVACY/COPYRIGHT GLOSSARY LINKS
FirstGov
(server date/time)  
NASA Home Page
Site Manager:   Ryan S. Park
Webmaster  Alan B. Chamberlin